1507618800.79,14758,10.25,73204.0,-6.55,-7.39,-7.35,0,*55
1507618802.04,14759,10.25,73202.5,-6.55,-7.35,-7.35,0,*58
1507618803.29,14760,10.25,73196.8,-6.55,-7.35,-7.31,0,*56
1507618804.56,14761,10.25,73200.8,-6.53,-7.35,-7.35,0,*55
1507618805.83,14762,10.25,73198.8,-6.53,-7.31,-7.31,0,*56
1507618807.1,14763,10.25,73202.8,-6.53,-7.35,-7.35,0,*57
1507618808.35,14764,10.25,73200.8,-6.55,-7.31,-7.35,0,*52
1507618809.62,14765,10.25,73202.8,-6.53,-7.35,-7.35,0,*51
1507618810.87,14766,10.25,73202.5,-6.55,-7.31,-7.31,0,*54
1507618812.14,14767,10.25,73190.0,-6.53,-7.35,-7.31,0,*57
1507618813.39,14768,10.25,73184.8,-6.55,-7.35,-7.35,0,*5A
1507618814.64,14769,10.25,73180.8,-6.55,-7.35,-7.35,0,*5B
1507618815.89,14770,10.25,73188.0,-6.55,-7.35,-7.35,0,*53
1507618817.15,14771,10.25,73180.3,-6.55,-7.35,-7.35,0,*52
1507618818.42,14772,10.25,73196.0,-6.53,-7.35,-7.35,0,*57
1507618819.69,14773,10.25,73194.8,-6.53,-7.35,-7.35,0,*56
1507618820.94,14774,10.25,73194.0,-6.55,-7.35,-7.35,0,*57
1507618822.21,14775,10.25,73192.3,-6.53,-7.31,-7.31,0,*50
1507618823.46,14776,10.25,73186.5,-6.55,-7.35,-7.35,0,*55
1507618824.71,14777,10.25,73196.8,-6.55,-7.35,-7.35,0,*54
1507618825.96,14778,10.25,73196.0,-6.55,-7.35,-7.31,0,*5F
1507618827.21,14779,10.25,73200.5,-6.55,-7.35,-7.31,0,*5E
1507618828.48,14780,10.25,73206.3,-6.53,-7.31,-7.31,0,*5A
1507618829.75,14781,10.25,73202.5,-6.53,-7.35,-7.35,0,*5B
1507618831.02,14782,10.25,73198.0,-6.53,-7.31,-7.31,0,*58
1507618832.29,14783,10.25,73196.3,-6.53,-7.31,-7.31,0,*59
1507618833.52,14784,10.25,73200.0,-6.55,-7.31,-7.23,0,*5B
1507618834.78,14785,10.25,73204.3,-6.53,-7.31,-7.31,0,*5F
1507618836.03,14786,10.25,73208.5,-6.55,-7.35,-7.35,0,*5A
1507618837.3,14787,10.25,73210.8,-6.53,-7.31,-7.31,0,*5D
1507618838.57,14788,10.25,73204.0,-6.53,-7.35,-7.31,0,*56
1507618839.84,14789,10.25,73180.8,-6.53,-7.31,-7.35,0,*57
1507618841.09,14790,10.25,73180.0,-6.51,-7.27,-7.31,0,*5E
1507618842.36,14791,10.25,73186.3,-6.53,-7.35,-7.35,0,*5A
1507618843.63,14792,10.25,73186.5,-6.53,-7.31,-7.31,0,*59
1507618844.9,14793,10.25,73200.3,-6.53,-7.31,-7.35,0,*5C
1507618846.15,14794,10.25,73198.3,-6.55,-7.35,-7.35,0,*59
1507618847.42,14795,10.25,73200.8,-6.53,-7.35,-7.35,0,*5E
1507618848.66,14796,10.25,73202.3,-6.51,-7.31,-7.31,0,*5F
1507618849.91,14797,10.25,73200.5,-6.51,-7.31,-7.31,0,*5E
1507618851.16,14798,10.25,73198.5,-6.51,-7.27,-7.27,0,*51
1507618852.4,14799,10.25,73190.8,-6.51,-7.31,-7.31,0,*50
1507618853.65,14800,10.25,73186.5,-6.51,-7.31,-7.31,0,*5F
1507618854.89,14801,10.25,73174.8,-6.51,-7.31,-7.31,0,*5E
1507618856.14,14802,10.25,73162.8,-6.51,-7.31,-7.35,0,*59
1507618857.39,14803,10.25,73156.8,-6.51,-7.35,-7.35,0,*5C
1507618858.63,14804,10.25,73158.8,-6.51,-7.35,-7.31,0,*5F
1507618859.88,14805,10.25,73168.8,-6.51,-7.31,-7.31,0,*5A
1507618861.12,14806,10.25,73172.8,-6.51,-7.31,-7.31,0,*59
1507618862.37,14807,10.25,73174.3,-6.51,-7.31,-7.31,0,*58
1507618863.62,14808,10.25,73170.8,-6.51,-7.31,-7.31,0,*57
1507618864.86,14809,10.25,73158.8,-6.51,-7.31,-7.31,0,*56
1507618866.1,14810,10.25,73164.8,-6.47,-7.27,-7.27,0,*59
1507618867.35,14811,10.25,73174.3,-6.51,-7.35,-7.27,0,*5C
1507618868.6,14812,10.25,73184.3,-6.51,-7.27,-7.27,0,*5C
1507618869.84,14813,10.25,73192.0,-6.51,-7.31,-7.31,0,*5D
1507618871.09,14814,10.25,73200.8,-6.47,-7.27,-7.27,0,*5D
1507618872.32,14815,10.25,73200.8,-6.47,-7.23,-7.27,0,*58
1507618873.54,14816,10.25,73194.3,-6.47,-7.23,-7.27,0,*5B
1507618874.78,14817,10.25,73174.8,-6.51,-7.27,-7.27,0,*59
1507618876.01,14818,10.25,73172.8,-6.47,-7.27,-7.23,0,*55
1507618877.25,14819,10.25,73174.3,-6.51,-7.31,-7.27,0,*50
1507618878.5,14820,10.25,73178.3,-6.47,-7.27,-7.27,0,*5A
1507618879.74,14821,10.25,73200.0,-6.47,-7.31,-7.31,0,*5B
1507618880.97,14822,10.25,73204.0,-6.47,-7.27,-7.15,0,*59
1507618882.19,14823,10.25,73200.5,-6.47,-7.27,-7.15,0,*58
1507618883.41,14824,10.25,73196.0,-6.47,-7.27,-7.23,0,*5A
1507618884.64,14825,10.25,73190.0,-6.45,-7.15,-7.23,0,*58
1507618885.86,14826,10.25,73194.5,-6.45,-7.23,-7.23,0,*5E
1507618887.11,14827,10.25,73198.8,-6.45,-7.27,-7.23,0,*5B
1507618888.33,14828,10.25,73184.0,-6.45,-7.15,-7.15,0,*50
1507618889.56,14829,10.25,73174.0,-6.45,-7.15,-7.11,0,*55
1507618890.78,14830,10.25,73158.3,-6.45,-7.15,-7.15,0,*59
1507618892.01,14831,10.25,73158.3,-6.45,-7.23,-7.11,0,*59
1507618893.23,14832,10.25,73160.8,-6.45,-7.15,-7.11,0,*5F
1507618894.46,14833,10.25,73168.5,-6.45,-7.11,-7.11,0,*5A
1507618895.69,14834,10.25,73170.0,-6.45,-7.11,-7.11,0,*5D
1507618896.92,14835,10.25,73168.5,-6.45,-7.11,-7.11,0,*5C
1507618898.15,14836,10.25,73164.3,-6.45,-7.11,-7.11,0,*5F
1507618899.4,14837,10.25,73162.8,-6.43,-7.01,-7.01,0,*58
1507618900.64,14838,10.25,73152.8,-6.43,-7.01,-6.97,0,*59
1507618901.83,14839,10.25,73156.3,-6.43,-6.89,-6.89,0,*56
1507618903.08,14840,10.25,73160.8,-6.43,-6.97,-7.01,0,*56
1507618904.35,14841,10.25,73166.3,-6.45,-7.01,-7.01,0,*5F
1507618905.57,14842,10.25,73160.5,-6.43,-7.15,-7.01,0,*5F
1507618906.77,14843,10.25,73160.3,-6.43,-7.11,-7.15,0,*5F
1507618907.97,14844,10.25,73164.8,-6.43,-7.15,-7.11,0,*58
1507618909.2,14845,10.25,73158.8,-6.45,-7.11,-7.11,0,*5B
1507618910.4,14846,10.25,73152.3,-6.43,-7.11,-7.11,0,*5E
1507618911.6,14847,10.25,73158.3,-6.43,-7.11,-7.11,0,*5F
1507618912.8,14848,10.25,73156.8,-6.43,-7.15,-7.15,0,*50
1507618914.0,14849,10.25,73142.3,-6.43,-7.15,-7.11,0,*55
1507618915.2,14850,10.25,73158.0,-6.43,-7.15,-7.15,0,*59
1507618916.4,14851,10.25,73156.8,-6.43,-7.23,-7.15,0,*5D
1507618917.6,14852,10.25,73154.3,-6.43,-7.15,-7.15,0,*5B
1507618918.82,14853,10.25,73150.0,-6.45,-7.23,-7.15,0,*59
1507618920.02,14854,10.25,73150.5,-6.43,-7.15,-7.11,0,*59
1507618921.26,14855,10.25,73150.8,-6.41,-7.11,-7.05,0,*5B
1507618922.5,14856,10.25,73152.3,-6.41,-7.11,-7.05,0,*58
1507618923.75,14857,10.25,73158.5,-6.41,-7.19,-7.05,0,*51
1507618924.98,14858,10.25,73176.0,-6.41,-7.19,-7.11,0,*5B
1507618926.2,14859,10.25,73186.5,-6.41,-7.23,-7.19,0,*5B
1507618927.42,14860,10.25,73186.5,-6.41,-7.23,-7.19,0,*51
1507618928.65,14861,10.25,73186.5,-6.41,-7.23,-7.23,0,*59
1507618929.85,14862,10.25,73190.5,-6.39,-7.19,-7.19,0,*55
1507618931.08,14863,10.25,73126.5,-6.41,-7.23,-7.23,0,*5B
1507618932.3,14864,10.25,73128.8,-6.41,-7.23,-7.23,0,*5C
1507618933.57,14865,10.25,73158.0,-6.41,-7.27,-7.27,0,*5D
1507618934.79,14866,10.25,73152.0,-6.39,-7.27,-7.23,0,*55
1507618936.04,14867,10.25,73164.0,-6.43,-7.31,-7.27,0,*5A
1507618937.26,14868,10.25,73142.5,-6.39,-7.27,-7.23,0,*5B
1507618938.48,14869,10.25,73146.3,-6.41,-7.23,-7.23,0,*51
1507618939.69,14870,10.25,73154.0,-6.39,-7.23,-7.23,0,*56
1507618940.91,14871,10.25,73144.0,-6.41,-7.23,-7.23,0,*58
1507618942.18,14872,10.25,73136.3,-6.41,-7.27,-7.27,0,*5B
1507618943.45,14873,10.25,73138.0,-6.41,-7.27,-7.27,0,*5A
1507618944.67,14874,10.25,73150.5,-6.41,-7.23,-7.23,0,*5D
1507618945.9,14875,10.25,73144.3,-6.41,-7.19,-7.19,0,*5C
1507618947.13,14876,10.25,73144.5,-6.41,-7.19,-7.19,0,*5F
1507618948.35,14877,10.25,73146.0,-6.41,-7.19,-7.19,0,*5E
1507618949.58,14878,10.25,73160.8,-6.41,-7.23,-7.23,0,*51
1507618950.8,14879,10.25,73158.8,-6.41,-7.23,-7.19,0,*59
1507618952.03,14880,10.25,73148.5,-6.41,-7.19,-7.19,0,*56
1507618953.23,14881,10.25,73152.0,-6.39,-7.23,-7.11,0,*59
1507618954.43,14882,10.25,73172.5,-6.39,-7.19,-7.19,0,*5B
1507618955.63,14883,10.25,73166.3,-6.39,-7.23,-7.23,0,*5A
1507618956.85,14884,10.25,73158.0,-6.41,-7.23,-7.19,0,*5B
1507618958.08,14885,10.25,73160.5,-6.41,-7.23,-7.23,0,*53
1507618959.28,14886,10.25,73166.3,-6.39,-7.23,-7.23,0,*5F
1507618960.48,14887,10.25,73190.5,-6.39,-7.19,-7.19,0,*5E
1507618961.68,14888,10.25,73186.0,-6.39,-7.23,-7.19,0,*58
1507618962.89,14889,10.25,73180.8,-6.39,-7.19,-7.19,0,*50
1507618964.11,14890,10.25,73184.3,-6.41,-7.23,-7.23,0,*57
1507618965.31,14891,10.25,73190.3,-6.39,-7.23,-7.19,0,*50
1507618966.54,14892,10.25,73194.5,-6.41,-7.19,-7.19,0,*55
1507618967.76,14893,10.25,73198.3,-6.41,-7.19,-7.19,0,*54
1507618968.97,14894,10.25,73198.0,-6.39,-7.19,-7.23,0,*55
1507618970.17,14895,10.25,73204.3,-6.39,-7.19,-7.23,0,*54
1507618971.38,14896,10.25,73198.5,-6.39,-7.19,-7.19,0,*5E
1507618972.6,14897,10.25,73182.3,-6.41,-7.19,-7.11,0,*58
1507618973.81,14898,10.25,73190.3,-6.39,-7.11,-7.11,0,*50
1507618975.05,14899,10.25,73192.5,-6.39,-7.05,-7.05,0,*51
1507618976.26,14900,10.25,73184.5,-6.39,-7.11,-7.11,0,*50
1507618977.52,14901,10.25,73176.8,-6.41,-7.05,-7.05,0,*5E
1507618978.76,14902,10.25,73182.8,-6.39,-7.05,-7.05,0,*52
1507618980.0,14903,10.25,73190.8,-6.39,-6.97,-6.97,0,*53
1507618981.27,14904,10.25,73192.5,-6.37,-7.05,-6.93,0,*54
1507618982.54,14905,10.25,73202.8,-6.37,-6.93,-6.93,0,*5B
1507618983.78,14906,10.25,73208.0,-6.37,-6.89,-6.93,0,*53
1507618985.0,14907,10.25,73200.8,-6.37,-6.89,-6.89,0,*59
1507618986.24,14908,10.25,73196.5,-6.39,-7.05,-6.97,0,*52
1507618987.49,14909,10.25,73186.0,-6.39,-6.93,-6.93,0,*59
1507618988.74,14910,10.25,73178.8,-6.39,-6.97,-6.93,0,*55
1507618989.96,14911,10.25,73172.0,-6.37,-6.89,-6.89,0,*5E
1507618991.2,14912,10.25,73172.5,-6.37,-6.93,-6.89,0,*56
1507618992.42,14913,10.25,73164.0,-6.37,-6.89,-6.89,0,*5C
1507618993.66,14914,10.25,73158.0,-6.37,-6.89,-6.93,0,*50
1507618994.93,14915,10.25,73154.8,-6.37,-6.93,-7.01,0,*50
1507618996.18,14916,10.25,73158.5,-6.35,-6.97,-6.97,0,*5B
1507618997.45,14917,10.25,73156.5,-6.37,-7.01,-6.93,0,*52
1507618998.69,14918,10.25,73156.5,-6.35,-7.01,-6.97,0,*5B
1507618999.94,14919,10.25,73172.8,-6.35,-6.97,-7.01,0,*5A
1507619001.14,14920,10.25,73198.5,-6.35,-6.85,-6.89,0,*52
1507619002.4,14921,10.25,73190.5,-6.37,-7.05,-7.01,0,*59
1507619003.65,14922,10.25,73176.8,-6.35,-6.97,-6.97,0,*5C
1507619004.92,14923,10.25,73136.0,-6.37,-6.93,-7.01,0,*55
1507619006.11,14924,10.25,73154.3,-6.35,-6.89,-6.89,0,*5A
1507619007.35,14925,10.25,73152.8,-6.35,-7.01,-7.05,0,*5F
1507619008.58,14926,10.25,73140.8,-6.35,-7.11,-7.01,0,*59
1507619009.85,14927,10.25,73144.3,-6.33,-7.01,-6.97,0,*51
1507619011.08,14928,10.25,73150.3,-6.33,-7.11,-7.11,0,*50
1507619012.33,14929,10.25,73158.8,-6.33,-7.01,-7.11,0,*50
1507619013.53,14930,10.25,73176.0,-6.35,-7.11,-7.15,0,*5B
1507619014.77,14931,10.25,73192.0,-6.35,-7.01,-7.01,0,*5E
1507619016.0,14932,10.25,73180.8,-6.35,-7.11,-7.01,0,*5C
1507619017.25,14933,10.25,73178.5,-6.35,-7.01,-6.97,0,*52
1507619018.47,14934,10.25,73182.8,-6.35,-6.97,-6.89,0,*54
1507619019.72,14935,10.25,73182.5,-6.33,-6.97,-6.89,0,*53
1507619020.91,14936,10.25,73178.0,-6.35,-6.89,-6.85,0,*55
1507619022.16,14937,10.25,73168.3,-6.35,-6.97,-6.97,0,*58
1507619023.41,14938,10.25,73180.0,-6.35,-6.97,-6.97,0,*57
1507619024.66,14939,10.25,73190.3,-6.35,-6.97,-7.01,0,*58
1507619025.9,14940,10.25,73190.8,-6.35,-7.01,-6.97,0,*56
1507619027.18,14941,10.25,73182.0,-6.33,-6.97,-7.01,0,*51
1507619028.44,14942,10.25,73198.8,-6.33,-7.01,-7.01,0,*5C
1507619029.71,14943,10.25,73198.0,-6.33,-7.01,-7.01,0,*5D
1507619030.96,14944,10.25,73196.8,-6.35,-7.01,-6.97,0,*52
1507619032.2,14945,10.25,73174.8,-6.35,-7.01,-6.97,0,*53
1507619033.45,14946,10.25,73192.8,-6.35,-7.01,-7.01,0,*5E
1507619034.72,14947,10.25,73188.0,-6.33,-6.97,-6.97,0,*59
1507619035.99,14948,10.25,73192.8,-6.33,-7.01,-6.97,0,*58
1507619037.26,14949,10.25,73184.8,-6.33,-7.01,-6.97,0,*59
1507619038.53,14950,10.25,73188.8,-6.33,-7.01,-6.97,0,*51
1507619039.76,14951,10.25,73194.5,-6.33,-7.11,-7.11,0,*5E
1507619041.01,14952,10.25,73202.3,-6.33,-7.01,-7.11,0,*5C
1507619042.25,14953,10.25,73194.0,-6.33,-7.11,-6.97,0,*53
1507619043.5,14954,10.25,73192.3,-6.33,-7.11,-7.01,0,*5A
1507619044.73,14955,10.25,73184.5,-6.33,-7.11,-7.11,0,*5A
1507619045.96,14956,10.25,73188.0,-6.33,-7.11,-7.11,0,*59
1507619047.19,14957,10.25,73188.3,-6.33,-7.11,-7.15,0,*5C
1507619048.41,14958,10.25,73194.5,-6.33,-7.15,-7.15,0,*57
1507619049.64,14959,10.25,73190.8,-6.33,-7.11,-7.15,0,*52
1507619050.87,14960,10.25,73190.5,-6.33,-7.11,-7.11,0,*5C
1507619052.09,14961,10.25,73190.8,-6.33,-7.15,-7.11,0,*59
1507619053.32,14962,10.25,73184.5,-6.33,-7.15,-7.11,0,*5A
1507619054.52,14963,10.25,73192.3,-6.31,-7.11,-7.11,0,*5D
1507619055.75,14964,10.25,73198.5,-6.33,-7.15,-7.11,0,*5C
1507619056.96,14965,10.25,73196.3,-6.31,-7.11,-7.05,0,*5E
1507619058.19,14966,10.25,73200.0,-6.33,-7.15,-7.11,0,*5E
1507619059.42,14967,10.25,73206.8,-6.33,-7.11,-7.11,0,*5B
1507619060.65,14968,10.25,73208.5,-6.33,-7.11,-7.11,0,*54
1507619061.89,14969,10.25,73202.3,-6.31,-7.05,-6.97,0,*5D
1507619063.11,14970,10.25,73196.8,-6.31,-7.11,-7.05,0,*5A
1507619064.35,14971,10.25,73200.0,-6.31,-7.05,-6.97,0,*54
1507619065.59,14972,10.25,73200.5,-6.31,-6.97,-6.97,0,*5D
1507619066.83,14973,10.25,73196.3,-6.31,-7.05,-6.97,0,*56
1507619068.08,14974,10.25,73202.3,-6.31,-7.05,-6.97,0,*51
1507619069.31,14975,10.25,73198.5,-6.31,-7.05,-7.05,0,*5A
1507619070.53,14976,10.25,73192.3,-6.31,-7.11,-7.05,0,*5C
1507619071.78,14977,10.25,73192.3,-6.33,-7.11,-7.01,0,*5B
1507619072.99,14978,10.25,73186.3,-6.31,-7.11,-7.05,0,*52
1507619074.22,14979,10.25,73186.0,-6.33,-7.15,-7.11,0,*50
1507619075.45,14980,10.25,73186.0,-6.33,-7.11,-7.11,0,*52
1507619076.67,14981,10.25,73188.8,-6.31,-7.05,-7.11,0,*54
1507619077.91,14982,10.25,73196.3,-6.31,-6.97,-7.05,0,*58
1507619079.15,14983,10.25,73190.0,-6.31,-6.97,-6.97,0,*53
1507619080.4,14984,10.25,73194.3,-6.31,-6.97,-6.97,0,*54
1507619081.65,14985,10.25,73194.5,-6.31,-6.93,-6.97,0,*51
1507619082.89,14986,10.25,73202.0,-6.31,-6.97,-6.93,0,*52
1507619084.16,14987,10.25,73198.5,-6.33,-6.97,-6.97,0,*55
1507619085.41,14988,10.25,73188.8,-6.31,-6.97,-6.97,0,*58
1507619086.65,14989,10.25,73196.5,-6.31,-7.05,-6.97,0,*53
1507619087.89,14990,10.25,73172.3,-6.31,-6.93,-6.93,0,*51
1507619089.14,14991,10.25,73172.0,-6.31,-6.97,-6.93,0,*54
1507619090.39,14992,10.25,73188.0,-6.31,-6.93,-6.93,0,*53
1507619091.63,14993,10.25,73170.0,-6.31,-6.93,-6.97,0,*56
1507619092.88,14994,10.25,73174.0,-6.31,-6.97,-6.93,0,*51
1507619094.12,14995,10.25,73176.3,-6.31,-6.97,-6.93,0,*50
1507619095.39,14996,10.25,73182.3,-6.29,-6.93,-6.97,0,*5A
1507619096.66,14997,10.25,73160.8,-6.33,-7.01,-7.01,0,*54
1507619097.9,14998,10.25,73174.5,-6.31,-6.97,-6.97,0,*59
1507619099.15,14999,10.25,73176.0,-6.31,-7.05,-6.93,0,*56
1507619100.39,15000,10.25,73192.8,-6.31,-6.93,-6.97,0,*54
1507619101.66,15001,10.25,73192.3,-6.29,-6.93,-6.93,0,*58
1507619102.93,15002,10.25,73190.5,-6.29,-6.93,-6.93,0,*5B
1507619104.16,15003,10.25,73196.8,-6.25,-6.93,-6.89,0,*5D
1507619105.43,15004,10.25,73190.8,-6.29,-6.97,-6.93,0,*59
1507619106.68,15005,10.25,73198.3,-6.25,-6.93,-6.93,0,*50
1507619107.95,15006,10.25,73202.3,-6.29,-6.93,-6.93,0,*5F
1507619109.22,15007,10.25,73178.0,-6.29,-6.97,-6.93,0,*5A
1507619110.49,15008,10.25,73188.5,-6.29,-6.97,-6.97,0,*51
1507619111.76,15009,10.25,73182.8,-6.29,-6.97,-6.97,0,*50
1507619113.02,15010,10.25,73176.3,-6.29,-7.05,-7.05,0,*58
1507619114.29,15011,10.25,73178.0,-6.29,-6.93,-6.97,0,*5D
1507619115.54,15012,10.25,73178.5,-6.25,-6.93,-6.93,0,*56
1507619116.81,15013,10.25,73198.8,-6.29,-6.93,-6.93,0,*5B
1507619118.08,15014,10.25,73186.8,-6.29,-6.97,-6.93,0,*58
1507619119.3,15015,10.25,73186.3,-6.25,-6.89,-6.93,0,*5A
1507619120.53,15016,10.25,73186.0,-6.25,-6.93,-6.89,0,*59
1507619121.75,15017,10.25,73186.0,-6.25,-6.85,-6.97,0,*50
1507619123.02,15018,10.25,73186.0,-6.29,-6.93,-6.93,0,*50
1507619124.27,15019,10.25,73194.5,-6.25,-7.01,-6.93,0,*57
1507619125.5,15020,10.25,73190.5,-6.25,-6.93,-6.89,0,*5C
1507619126.73,15021,10.25,73188.8,-6.25,-7.01,-6.89,0,*57
1507619127.98,15022,10.25,73184.8,-6.25,-6.93,-6.93,0,*55
1507619129.21,15023,10.25,73180.5,-6.25,-6.93,-6.89,0,*5F
1507619130.41,15024,10.25,73184.5,-6.25,-6.89,-6.89,0,*53
1507619131.61,15025,10.25,73182.0,-6.25,-6.81,-6.77,0,*5B
1507619132.82,15026,10.25,73168.5,-6.25,-6.81,-6.77,0,*58
1507619134.02,15027,10.25,73170.8,-6.25,-6.81,-6.77,0,*59
1507619135.25,15028,10.25,73172.8,-6.23,-6.77,-6.81,0,*50
1507619136.48,15029,10.25,73174.3,-6.23,-6.81,-6.77,0,*51
1507619137.68,15030,10.25,73180.5,-6.21,-6.77,-6.73,0,*56
1507619138.88,15031,10.25,73166.8,-6.21,-6.77,-6.73,0,*57
1507619140.13,15032,10.25,73152.0,-6.23,-6.93,-6.89,0,*59
1507619141.33,15033,10.25,73152.5,-6.21,-6.77,-6.85,0,*5C
1507619142.58,15034,10.25,73138.3,-6.23,-6.93,-6.89,0,*5F
1507619143.81,15035,10.25,73140.3,-6.23,-6.89,-6.81,0,*5D
1507619145.01,15036,10.25,73144.3,-6.21,-6.77,-6.73,0,*50
1507619146.21,15037,10.25,73128.5,-6.21,-6.81,-6.81,0,*55
1507619147.41,15038,10.25,73154.8,-6.21,-6.85,-6.85,0,*5A
1507619148.61,15039,10.25,73134.8,-6.21,-6.85,-6.77,0,*56
1507619149.8,15040,10.25,73142.3,-6.21,-6.89,-6.89,0,*55
1507619151.0,15041,10.25,73154.8,-6.21,-6.89,-6.85,0,*58
1507619152.25,15042,10.25,73154.8,-6.21,-7.01,-7.01,0,*57
1507619153.47,15043,10.25,73176.3,-6.21,-6.97,-6.89,0,*59
1507619154.7,15044,10.25,73170.3,-6.19,-6.89,-6.85,0,*56
1507619155.92,15045,10.25,73164.5,-6.19,-6.85,-6.73,0,*52
1507619157.2,15046,10.25,73174.5,-6.19,-6.97,-7.01,0,*56
1507619158.43,15047,10.25,73180.5,-6.19,-6.85,-6.85,0,*59
1507619159.62,15048,10.25,73194.5,-6.21,-6.85,-6.77,0,*50
1507619160.82,15049,10.25,73170.0,-6.21,-6.89,-6.89,0,*5C
1507619162.07,15050,10.25,73166.3,-6.21,-6.97,-7.01,0,*5A
1507619163.32,15051,10.25,73196.3,-6.21,-6.97,-7.01,0,*5B
1507619164.51,15052,10.25,73194.0,-6.21,-6.85,-6.85,0,*56
1507619165.76,15053,10.25,73170.5,-6.19,-6.89,-6.97,0,*53
1507619166.99,15054,10.25,73184.3,-6.19,-6.89,-6.89,0,*5B
1507619168.21,15055,10.25,73188.8,-6.19,-6.89,-6.85,0,*56
1507619169.41,15056,10.25,73192.8,-6.17,-6.85,-6.85,0,*57
1507619170.64,15057,10.25,73216.8,-6.19,-6.85,-6.85,0,*58
1507619171.86,15058,10.25,73220.8,-6.19,-6.89,-6.89,0,*57
1507619173.07,15059,10.25,73204.0,-6.17,-6.81,-6.81,0,*58
1507619174.29,15060,10.25,73202.0,-6.19,-6.89,-6.89,0,*5C
1507619175.52,15061,10.25,73202.3,-6.19,-6.89,-6.89,0,*5D
1507619176.73,15062,10.25,73210.5,-6.17,-6.81,-6.81,0,*50
1507619177.93,15063,10.25,73212.0,-6.17,-6.81,-6.73,0,*5C
1507619179.12,15064,10.25,73210.0,-6.17,-6.85,-6.85,0,*56
1507619180.33,15065,10.25,73222.5,-6.17,-6.85,-6.81,0,*53
1507619181.53,15066,10.25,73224.3,-6.17,-6.81,-6.81,0,*54
1507619182.73,15067,10.25,73224.3,-6.17,-6.81,-6.73,0,*58
1507619183.92,15068,10.25,73224.3,-6.17,-6.73,-6.69,0,*51
1507619185.12,15069,10.25,73224.8,-6.17,-6.69,-6.55,0,*54
1507619186.35,15070,10.25,73228.3,-6.19,-6.59,-6.59,0,*5D
1507619187.55,15071,10.25,73228.5,-6.17,-6.59,-6.59,0,*52
1507619188.75,15072,10.25,73226.5,-6.17,-6.59,-6.55,0,*5D
1507619189.95,15073,10.25,73228.0,-6.17,-6.55,-6.55,0,*50
1507619191.15,15074,10.25,73224.8,-6.17,-6.43,-6.47,0,*53
1507619192.35,15075,10.25,73222.0,-6.17,-6.47,-6.47,0,*56
1507619193.55,15076,10.25,73216.8,-6.13,-6.43,-6.43,0,*51
1507619194.75,15077,10.25,73210.3,-6.13,-6.43,-6.43,0,*50
1507619195.95,15078,10.25,73202.8,-6.13,-6.43,-6.43,0,*5F
1507619197.15,15079,10.25,73196.5,-6.13,-6.43,-6.39,0,*53
1507619198.35,15080,10.25,73192.0,-6.13,-6.43,-6.43,0,*58
1507619199.56,15081,10.25,73192.5,-6.13,-6.43,-6.51,0,*5A
1507619200.76,15082,10.25,73194.3,-6.13,-6.43,-6.51,0,*59
1507619201.97,15083,10.25,73196.5,-6.13,-6.51,-6.51,0,*5B
1507619203.17,15084,10.25,73196.3,-6.13,-6.55,-6.51,0,*58
1507619204.37,15085,10.25,73202.5,-6.13,-6.55,-6.51,0,*59
1507619205.58,15086,10.25,73204.0,-6.13,-6.51,-6.55,0,*5A
1507619206.78,15087,10.25,73210.3,-6.13,-6.55,-6.55,0,*5F
1507619207.98,15088,10.25,73176.5,-6.13,-6.55,-6.55,0,*50
1507619209.18,15089,10.25,73200.8,-6.13,-6.69,-6.69,0,*51
1507619210.38,15090,10.25,73204.5,-6.13,-6.81,-6.77,0,*50
1507619211.59,15091,10.25,73186.3,-6.13,-6.77,-6.81,0,*51
1507619212.79,15092,10.25,73176.3,-6.13,-6.77,-6.81,0,*52
1507619214.0,15093,10.25,73172.3,-6.13,-6.81,-6.77,0,*53
1507619215.21,15094,10.25,73170.0,-6.13,-6.81,-6.81,0,*5D
1507619216.41,15095,10.25,73170.0,-6.13,-6.81,-6.77,0,*55
1507619217.61,15096,10.25,73170.0,-6.13,-6.81,-6.77,0,*56
1507619218.82,15097,10.25,73174.5,-6.13,-6.89,-6.81,0,*56
1507619220.04,15098,10.25,73164.5,-6.13,-6.89,-6.93,0,*5A
1507619221.29,15099,10.25,73144.5,-6.13,-6.97,-6.93,0,*54
1507619222.54,15100,10.25,73156.3,-6.13,-6.97,-6.97,0,*51
1507619223.79,15101,10.25,73152.5,-6.13,-6.97,-6.97,0,*50
1507619225.02,15102,10.25,73160.0,-6.13,-6.89,-6.93,0,*58
1507619226.27,15103,10.25,73150.3,-6.13,-6.93,-6.93,0,*52
1507619227.52,15104,10.25,73132.3,-6.13,-6.93,-6.93,0,*55
1507619228.77,15105,10.25,73126.3,-6.13,-7.05,-6.97,0,*5E
1507619229.98,15106,10.25,73124.8,-6.13,-7.11,-7.11,0,*57
1507619231.21,15107,10.25,73110.0,-6.13,-7.05,-7.11,0,*53
1507619232.46,15108,10.25,73144.8,-6.13,-6.97,-6.97,0,*59
1507619233.68,15109,10.25,73124.8,-6.13,-7.11,-7.05,0,*5D
1507619234.89,15110,10.25,73152.0,-6.13,-7.19,-7.19,0,*50
1507619236.13,15111,10.25,73156.8,-6.13,-7.05,-7.05,0,*51
1507619237.38,15112,10.25,73150.8,-6.13,-7.05,-6.97,0,*58
1507619238.6,15113,10.25,73156.8,-6.13,-7.05,-7.11,0,*56
1507619239.85,15114,10.25,73162.0,-6.13,-6.97,-7.05,0,*5E
1507619241.09,15115,10.25,73154.3,-6.13,-7.05,-7.05,0,*55
1507619242.32,15116,10.25,73148.5,-6.13,-7.11,-6.97,0,*59
1507619243.57,15117,10.25,73144.8,-6.13,-6.97,-6.97,0,*57
1507619244.82,15118,10.25,73160.3,-6.13,-6.97,-6.97,0,*58
1507619246.07,15119,10.25,73162.0,-6.13,-6.97,-6.97,0,*59
1507619247.32,15120,10.25,73174.3,-6.13,-6.97,-6.97,0,*53
1507619248.58,15121,10.25,73180.5,-6.13,-6.97,-6.97,0,*52
1507619249.8,15122,10.25,73174.0,-6.13,-6.93,-6.89,0,*5A
1507619251.06,15123,10.25,73180.3,-6.13,-6.93,-6.93,0,*50
1507619252.31,15124,10.25,73186.3,-6.13,-6.93,-6.93,0,*57
1507619253.53,15125,10.25,73186.5,-6.13,-6.89,-6.93,0,*5D
1507619254.76,15126,10.25,73204.5,-6.13,-6.93,-6.89,0,*5E
1507619256.01,15127,10.25,73186.5,-6.13,-6.97,-6.93,0,*50
1507619257.26,15128,10.25,73186.3,-6.13,-6.97,-6.93,0,*5F
1507619258.51,15129,10.25,73188.5,-6.13,-6.97,-6.93,0,*5E
1507619259.77,15130,10.25,73190.5,-6.13,-6.93,-6.93,0,*52
1507619261.02,15131,10.25,73188.8,-6.13,-6.93,-6.93,0,*53
1507619262.27,15132,10.25,73192.3,-6.13,-6.93,-6.93,0,*50
1507619263.52,15133,10.25,73190.8,-6.13,-6.93,-6.97,0,*55
1507619264.77,15134,10.25,73184.0,-6.13,-6.93,-6.93,0,*56
1507619266.03,15135,10.25,73188.0,-6.13,-6.93,-6.97,0,*53
1507619267.25,15136,10.25,73186.5,-6.13,-6.93,-6.89,0,*5F
1507619268.48,15137,10.25,73164.0,-6.13,-6.89,-6.93,0,*5E
1507619269.7,15138,10.25,73168.3,-6.13,-6.89,-6.93,0,*51
1507619270.9,15139,10.25,73160.8,-6.13,-6.81,-6.89,0,*53
1507619272.13,15140,10.25,73178.3,-6.13,-6.93,-6.89,0,*5E
1507619273.36,15141,10.25,73196.3,-6.13,-6.89,-6.93,0,*5F
1507619274.55,15142,10.25,73198.3,-6.13,-6.89,-6.89,0,*57
1507619275.78,15143,10.25,73198.3,-6.13,-6.89,-6.93,0,*5D
1507619277.01,15144,10.25,73192.0,-6.13,-6.93,-6.89,0,*5A
1507619278.23,15145,10.25,73180.8,-6.13,-6.93,-6.89,0,*5B
1507619279.43,15146,10.25,73178.5,-6.13,-6.89,-6.89,0,*53
1507619280.64,15147,10.25,73186.5,-6.13,-6.89,-6.81,0,*5A
1507619281.86,15148,10.25,73182.0,-6.13,-6.93,-6.89,0,*56
1507619283.11,15149,10.25,73186.5,-6.13,-7.05,-6.93,0,*52
1507619284.34,15150,10.25,73188.3,-6.13,-6.93,-6.89,0,*5F
1507619285.57,15151,10.25,73196.8,-6.13,-6.93,-6.89,0,*5E
1507619286.79,15152,10.25,73210.3,-6.13,-6.93,-6.89,0,*5D
1507619288.05,15153,10.25,73216.5,-6.13,-6.93,-6.93,0,*57
1507619289.25,15154,10.25,73212.0,-6.13,-6.89,-6.89,0,*50
1507619290.47,15155,10.25,73214.3,-6.13,-6.93,-6.89,0,*5A
1507619291.7,15156,10.25,73214.3,-6.13,-6.93,-6.89,0,*59
1507619292.9,15157,10.25,73206.5,-6.13,-6.89,-6.81,0,*5B
1507619294.11,15158,10.25,73210.5,-6.13,-6.89,-6.81,0,*54
1507619295.32,15159,10.25,73204.3,-6.13,-6.77,-6.81,0,*54
1507619296.52,15160,10.25,73202.8,-6.13,-6.89,-6.81,0,*5F
1507619297.78,15161,10.25,73198.8,-6.13,-6.93,-6.93,0,*56
1507619299.0,15162,10.25,73202.5,-6.11,-6.89,-6.89,0,*57
1507619300.25,15163,10.25,73202.0,-6.11,-6.93,-6.89,0,*5D
1507619301.5,15164,10.25,73200.3,-6.13,-6.93,-6.93,0,*53
1507619302.75,15165,10.25,73198.8,-6.13,-6.93,-6.93,0,*52
1507619304.01,15166,10.25,73190.8,-6.13,-6.93,-6.93,0,*51
1507619305.28,15167,10.25,73186.3,-6.11,-6.93,-6.93,0,*52
1507619306.56,15168,10.25,73188.8,-6.11,-6.97,-6.93,0,*59
1507619307.84,15169,10.25,73192.3,-6.11,-6.97,-6.97,0,*5C
1507619309.11,15170,10.25,73190.5,-6.11,-6.97,-6.93,0,*50
1507619310.36,15171,10.25,73188.5,-6.11,-6.97,-6.89,0,*5A